This is the latest recevied weather packets stored in our database for station/object N5DGC. If no packets are shown the sender has not sent any weather packets the latest 10 day(s).
| Time | Temp. | Humidity | Pressure | Rain* | Wind** | Luminosity | Snow |
|---|---|---|---|---|---|---|---|
| 1777145836 | 23.89° C | 15% | 1229.6 hPa | 0 mm | - | 675 W/m² | - |
| 1777145534 | 23.89° C | 15% | 1229.7 hPa | 0 mm | - | 1000 W/m² | - |
| 1777145229 | 23.89° C | 15% | 1229.8 hPa | 0 mm | - | 854 W/m² | - |
| 1777144924 | 23.33° C | 16% | 1230.1 hPa | 0 mm | - | 990 W/m² | - |
| 1777144623 | 23.33° C | 16% | 1230 hPa | 0 mm | - | 977 W/m² | - |
| 1777144319 | 23.33° C | 16% | 1230.1 hPa | 0 mm | - | 912 W/m² | - |
| 1777144015 | 23.33° C | 15% | 1230.4 hPa | 0 mm | - | 925 W/m² | - |
| 1777143711 | 23.33° C | 16% | 1230.4 hPa | 0 mm | - | 628 W/m² | - |
| 1777143408 | 23.33° C | 16% | 1230.4 hPa | 0 mm | - | 567 W/m² | - |
| 1777143104 | 22.22° C | 17% | 1230.4 hPa | 0 mm | - | 790 W/m² | - |
| 1777142799 | 22.78° C | 16% | 1230.7 hPa | 0 mm | - | 727 W/m² | - |
| 1777142497 | 22.78° C | 16% | 1230.7 hPa | 0 mm | - | 614 W/m² | - |
| 1777142196 | 22.78° C | 15% | 1230.7 hPa | 0 mm | - | 842 W/m² | - |
| 1777141892 | 22.22° C | 17% | 1230.8 hPa | 0 mm | - | 878 W/m² | - |
| 1777141590 | 22.78° C | 16% | 1231 hPa | 0 mm | - | 677 W/m² | - |
| 1777141289 | 22.78° C | 15% | 1231.1 hPa | 0 mm | - | 746 W/m² | - |
| 1777140985 | 22.78° C | 16% | 1231.1 hPa | 0 mm | - | 800 W/m² | - |
| 1777140682 | 22.78° C | 16% | 1231.1 hPa | 0 mm | - | 760 W/m² | - |
| 1777140378 | 22.78° C | 16% | 1231.2 hPa | 0 mm | - | 974 W/m² | - |
| 1777140076 | 22.22° C | 16% | 1231.5 hPa | 0 mm | - | 978 W/m² | - |
| 1777139774 | 21.67° C | 17% | 1231.5 hPa | 0 mm | - | 974 W/m² | - |
| 1777139469 | 21.67° C | 17% | 1231.8 hPa | 0 mm | - | 923 W/m² | - |
| 1777139164 | 21.67° C | 17% | 1231.8 hPa | 0 mm | - | 847 W/m² | - |
| 1777138862 | 20.56° C | 17% | 1231.5 hPa | 0 mm | - | 537 W/m² | - |
| 1777138557 | 21.67° C | 16% | 1231.5 hPa | 0 mm | - | 323 W/m² | - |
* Rain latest hour (hover to see other rain measurements)
** Current wind speed in m/s (hover to see current wind gust speed)